Location: Lake Sonoma
(38.7200°N, 123.0564°W)
Time: 06:39:50
(UTC-07:00)

ISS - All Passes

Search period start: 01 September 2014 00:00
Search period end: 11 September 2014 00:00
Orbit: 414 x 419 km, 51.6° (Epoch: 01 September)

Date Brightness Start Highest point End Pass type
(mag) Time Alt. Az. Time Alt. Az. Time Alt. Az.
01 Sep - 09:06:52 10° SSE 09:08:35 14° SE 09:10:18 10° E daylight
01 Sep - 10:41:41 10° WSW 10:44:57 58° NW 10:48:15 10° NE daylight
01 Sep - 12:20:29 10° NW 12:22:15 14° NNW 12:24:02 10° NNE daylight
01 Sep - 15:35:38 10° NNW 15:38:02 18° NNE 15:40:25 10° ENE daylight
01 Sep - 17:11:45 10° NW 17:15:05 74° SW 17:18:23 10° SE daylight
02 Sep - 09:53:06 10° SW 09:56:25 77° SE 09:59:44 10° NE daylight
02 Sep - 11:31:07 10° WNW 11:33:29 18° NNW 11:35:50 10° NNE daylight
02 Sep - 14:47:25 10° NNW 14:49:15 14° NNE 14:51:04 10° NE daylight
02 Sep - 16:23:14 10° NW 16:26:32 60° NE 16:29:49 10° ESE daylight
02 Sep - 18:01:16 10° W 18:02:53 13° SW 18:04:30 10° SSW daylight
03 Sep - 09:04:47 10° SSW 09:07:54 40° SE 09:11:03 10° ENE daylight
03 Sep - 10:41:56 10° W 10:44:44 24° NNW 10:47:32 10° NNE daylight
03 Sep - 13:59:18 10° N 14:00:24 11° NNE 14:01:30 10° NNE daylight
03 Sep - 15:34:47 10° NW 15:37:54 35° NNE 15:41:00 10° E daylight
03 Sep - 17:11:47 10° WNW 17:14:30 23° SW 17:17:12 10° S daylight
04 Sep - 08:16:49 10° S 08:19:27 22° SE 08:22:05 10° E daylight
04 Sep - 09:52:54 10° WSW 09:56:01 37° NNW 09:59:09 10° NE daylight
04 Sep - 11:32:19 10° NW 11:33:30 11° NNW 11:34:41 10° N daylight
04 Sep - 14:46:24 10° NNW 14:49:11 24° NNE 14:51:57 10° E daylight
04 Sep - 16:22:51 10° WNW 16:26:01 42° SW 16:29:11 10° SSE daylight
05 Sep - 07:29:36 10° SSE 07:31:01 12° SE 07:32:27 10° ESE daylight
05 Sep - 09:04:03 10° WSW 09:07:21 64° NW 09:10:40 10° NE daylight
05 Sep - 10:42:44 10° NW 10:44:37 14° NNW 10:46:30 10° NNE daylight
05 Sep - 13:58:04 10° NNW 14:00:23 17° NNE 14:02:41 10° ENE daylight
05 Sep - 15:34:08 10° NW 15:37:28 82° SW 15:40:47 10° SE daylight
06 Sep - 08:15:26 10° SW 08:18:44 69° SE 08:22:03 10° NE daylight
06 Sep - 09:53:19 10° WNW 09:55:45 19° NNW 09:58:11 10° NNE daylight
06 Sep - 13:09:47 10° NNW 13:11:30 13° NNE 13:13:13 10° NE daylight
06 Sep - 14:45:32 10° NW 14:48:49 55° NE 14:52:05 10° ESE daylight
06 Sep - 16:23:19 10° W 16:25:12 14° SW 16:27:05 10° SSW daylight
07 Sep - 07:27:04 10° SSW 07:30:09 36° SE 07:33:14 10° ENE daylight
07 Sep - 09:04:03 10° W 09:06:55 26° NNW 09:09:47 10° NNE daylight
07 Sep - 12:21:36 10° N 12:22:33 11° NNE 12:23:30 10° NNE daylight
07 Sep - 13:57:01 10° NW 14:00:05 33° NNE 14:03:08 10° E daylight
07 Sep - 15:33:54 10° WNW 15:36:43 26° SW 15:39:31 10° S daylight
08 Sep - 06:39:06 10° S 06:41:36 20° SE 06:44:07 10° E daylight
08 Sep - 08:14:58 10° WSW 08:18:08 40° NNW 08:21:18 10° NE daylight
08 Sep - 09:54:15 10° NW 09:55:34 12° NNW 09:56:53 10° N daylight
08 Sep - 13:08:33 10° NNW 13:11:15 22° NNE 13:13:57 10° E daylight
08 Sep - 14:44:55 10° WNW 14:48:08 47° SW 14:51:20 10° SSE daylight
09 Sep - 05:52:08 10° SE 05:53:06 11° SE 05:54:04 10° ESE visible
09 Sep - 07:26:04 10° WSW 07:29:23 71° NW 07:32:42 10° NE daylight
09 Sep - 09:04:36 10° WNW 09:06:36 15° NNW 09:08:35 10° NNE daylight
09 Sep - 12:20:08 10° NNW 12:22:21 16° NNE 12:24:34 10° ENE daylight
09 Sep - 13:56:08 10° NW 13:59:28 89° NE 14:02:47 10° SE daylight
10 Sep - 06:37:24 10° SW 06:40:40 62° SE 06:43:58 10° ENE daylight
10 Sep - 08:15:07 10° WNW 08:17:39 20° NNW 08:20:10 10° NNE daylight
10 Sep - 11:31:46 10° NNW 11:33:22 13° NNE 11:34:58 10° NE daylight
10 Sep - 13:07:28 10° NW 13:10:43 49° NE 13:13:57 10° ESE daylight
10 Sep - 14:45:02 10° W 14:47:09 16° SW 14:49:15 10° S daylight
